STARLINK-11566, 62914

Orbit data source: Space-Track

STARLINK-11566, 62914 is a payload satellite owned by SpaceX/Seattle (US) in LEO that was launched on Sat, 08 Feb 2025 UTC via an FALCON 9 launch vehicle from the Air Force Eastern Test Range (AFETR). Payload-class satellites include a variety of spacecraft equipped with specific instruments for various scientific and technological missions. These include communications satellites like Starlink; space stations such as the ISS; scientific satellites like the Hubble; Earth observation satellites from companies like Planet Labs, Umbra, and HawkEye 360; GPS; miniature CubeSats for education and research; and military/defense satellites.

Loading next visibility...
Identifier
62914, 2025-027H
Orbit
LEO
Country
Flag of USUS
Related business
Manufacturer
SpaceX/Seattle
Mission
Operational Commercial Communications
Bus & Motor
STARLINK V2MD, Unknown motor
Mass
960 kg wet, ~910 kg dry
Launch date (UTC)
2025-02-08 (9 months ago)
Launch vehicle
FALCON 9
Launch site
Air Force Eastern Test Range (AFETR)
Object type
Payload
Rocket body
Debris
Shape & HBR
Box + 2 Pan, 18.1 m
Radar Cross Section
36.964 m², Large (>1 m²)

Expand to show TLE details & history
Last TLE update: 7 hours ago

TLE from 7 hours ago
0 STARLINK-11566
1 62914U 25027H   25302.48223529  .00250227  00000-0  18912-2 0  9996
2 62914  42.9955  58.8034 0000148 130.9838 229.1042 15.70892207 42558
Epoch: 2025-10-29T11:34Z
TLE epoch observation values (Epoch: 2025-10-29T11:34:25.129Z)
Latitude
-0.00003°
Longitude
-152.85607°
Altitude
356.182 km
Speed
7.697 km/s
True Right ascension
03h 55m 12s
True Declination
0° 00' 00"
Sunlit
Object was in full shadow at epoch
Visualization orbit readout
Latitude
Unknown
Longitude
Unknown
Altitude
Unknown
Speed
Unknown
Apparent Right ascension
Unknown
Apparent Declination
Unknown
Sunlit
N/A
Visualization observer readout
Local Sidereal Time
13:44:34
Azimuth
Unknown
Elevation
Unknown
Doppler factor
Unknown
Orbital elements
Apogee altitude
358.428 km
Perigee altitude
358.229 km
Semi-major axis
6,736.465 km
Eccentricity
0.00001
Inclination
42.9955°
RAAN
58.8034°
Arg. of periapsis
130.9838°
True anomaly
229.10292°
Mean anomaly
229.1042°
Eccentric anomaly
229.10356°
Mean motion
3.9255 °/min
Orbital period
91.71 mins
BSTAR
0.0018912
Loading maneuver chart data...
Computing Atmospheric mass density...
Loading historical data...
Loading historical data...
Loading historical data...
Loading historical data...
Loading historical data...
Loading historical data...
Loading historical data...

Documentation

Showing up to 5 results
|